Sussex, NJ

1:43 AM EDT on May 30, 2017 (GMT -0400)
Sussex

Weather History for KFWN - February, 2013

Change the Weather History Date:

Sunday, February 24, 2013

  Actual Average Record
Temperature  
Mean Temperature 38 °F -  
Max Temperature 45 °F 41 °F 73 °F (2017)
Min Temperature 30 °F 21 °F -15 °F (2015)
Degree Days  
Heating Degree Days 26    
Moisture  
Dew Point 30 °F    
Average Humidity 77    
Maximum Humidity 100    
Minimum Humidity 53    
Precipitation  
Precipitation 0.01 in - - ()
Sea Level Pressure  
Sea Level Pressure 29.83 in    
Wind  
Wind Speed 3 mph (NNW)    
Max Wind Speed 13 mph    
Max Gust Speed 22 mph    
Visibility 8 miles    
Events      
Averages and records for this station are not official NWS values.
T = Trace of Precipitation, MM = Missing Value Source: NWS Daily Summary

Daily Weather History Graph

Daily Weather History Graph

Search for Another Location

Airport or City:

Trip Planner

Search our weather history database for the weather conditions in past years. The results will help you decide how hot, cold, wet, or windy it might be!

Date:

Astronomy

Feb. 24, 2013 Rise Set
Actual Time 6:40 AM EST 5:43 PM EST
Civil Twilight 6:12 AM EST 6:11 PM EST
Nautical Twilight 5:40 AM EST 6:43 PM EST
Astronomical Twilight 5:08 AM EST 7:15 PM EST
Moon 4:52 PM EST (2/24) 5:36 AM EST (2/24)
Length of Visible Light 11h 59m
Length of Day
11h 03m
Waxing Gibbous, 99% of the Moon is Illuminated
Feb 24
Waxing Gibbous
Feb 25
Full
Mar 4
Last Quarter
Mar 11
New
Mar 19
First Quarter

Hourly Weather History & Observations

Time (EST) Temp. Windchill Dew Point Humidity Pressure Visibility Wind Dir Wind Speed Gust Speed Precip Events Conditions
12:50 AM 35.6 °F 31.7 °F 33.8 °F 93% 29.82 in 2.0 mi NE 4.6 mph - 0.00 in   Overcast
12:53 AM 36.0 °F 33.3 °F 34.0 °F 93% 29.83 in 2.0 mi NE 3.5 mph - 0.00 in   Overcast
1:11 AM 35.6 °F - 33.8 °F 93% 29.82 in 3.0 mi Calm Calm - 0.01 in   Overcast
1:48 AM 35.6 °F - 33.8 °F 93% 29.82 in 8.0 mi Calm Calm - 0.01 in   Overcast
1:53 AM 35.1 °F - 33.1 °F 92% 29.83 in 9.0 mi Calm Calm - 0.01 in   Overcast
2:53 AM 35.1 °F - 33.1 °F 92% 29.81 in 6.0 mi Calm Calm - N/A   Overcast
3:03 AM 35.6 °F - 33.8 °F 93% 29.80 in 5.0 mi Calm Calm - N/A   Overcast
3:53 AM 35.1 °F 31.0 °F 33.1 °F 92% 29.82 in 5.0 mi WNW 4.6 mph - N/A   Overcast
4:12 AM 35.6 °F - 33.8 °F 93% 29.80 in 9.0 mi Calm Calm - N/A   Overcast
4:53 AM 34.0 °F - 32.0 °F 92% 29.79 in 2.5 mi Calm Calm - N/A   Overcast
5:03 AM 33.8 °F - 32.0 °F 93% 29.78 in 7.0 mi Calm Calm - N/A   Overcast
5:53 AM 34.0 °F - 33.1 °F 96% 29.78 in 6.0 mi Calm Calm - N/A   Overcast
6:53 AM 34.0 °F - 32.0 °F 92% 29.80 in 3.0 mi Calm Calm - N/A   Overcast
7:01 AM 33.8 °F - 32.0 °F 93% 29.79 in 2.5 mi Calm Calm - N/A   Overcast
7:24 AM 33.8 °F - 33.8 °F 100% 29.78 in 4.0 mi Calm Calm - N/A   Overcast
7:34 AM 33.8 °F - 33.8 °F 100% 29.78 in 5.0 mi Calm Calm - N/A   Mostly Cloudy
7:53 AM 34.0 °F - 33.1 °F 96% 29.79 in 3.0 mi Calm Calm - N/A   Overcast
8:27 AM 37.4 °F - 33.8 °F 87% 29.78 in 10.0 mi Calm Calm - N/A   Mostly Cloudy
8:36 AM 39.2 °F - 35.6 °F 87% 29.78 in 10.0 mi Calm Calm - N/A   Mostly Cloudy
8:53 AM 39.9 °F - 35.1 °F 83% 29.79 in 10.0 mi Calm Calm - N/A   Overcast
9:45 AM 42.8 °F 39.3 °F 35.6 °F 76% 29.78 in 10.0 mi Variable 5.8 mph - N/A   Overcast
9:53 AM 42.1 °F 39.2 °F 35.1 °F 76% 29.79 in 10.0 mi NW 4.6 mph - N/A   Mostly Cloudy
10:24 AM 42.8 °F 38.6 °F 33.8 °F 70% 29.78 in 10.0 mi Variable 6.9 mph - N/A   Overcast
10:34 AM 42.8 °F 38.0 °F 33.8 °F 70% 29.78 in 10.0 mi NNW 8.1 mph 17.3 mph N/A   Overcast
10:53 AM 44.1 °F 42.5 °F 33.1 °F 65% 29.79 in 10.0 mi Variable 3.5 mph - N/A   Scattered Clouds
11:53 AM 45.0 °F - 28.9 °F 53% 29.78 in 10.0 mi Calm Calm - 0.00 in   Scattered Clouds
12:53 PM 42.1 °F 38.4 °F 27.0 °F 55% 29.79 in 10.0 mi NW 5.8 mph 18.4 mph N/A   Overcast
1:53 PM 41.0 °F 38.0 °F 26.1 °F 55% 29.80 in 10.0 mi Variable 4.6 mph - N/A   Overcast
2:53 PM 39.0 °F 32.8 °F 26.1 °F 60% 29.80 in 10.0 mi WNW 9.2 mph - N/A   Overcast
3:45 PM 35.6 °F 28.6 °F 24.8 °F 65% 29.82 in 10.0 mi NW 9.2 mph 21.9 mph N/A   Overcast
3:53 PM 36.0 °F 28.0 °F 24.1 °F 62% 29.84 in 10.0 mi NW 11.5 mph 20.7 mph N/A   Overcast
4:20 PM 35.6 °F 30.7 °F 23.0 °F 60% 29.84 in 10.0 mi Variable 5.8 mph 16.1 mph N/A   Overcast
4:53 PM 36.0 °F 27.5 °F 21.0 °F 55% 29.86 in 10.0 mi WNW 12.7 mph 16.1 mph N/A   Overcast
5:53 PM 35.1 °F 30.1 °F 21.9 °F 59% 29.89 in 10.0 mi Variable 5.8 mph - N/A   Overcast
6:53 PM 34.0 °F 31.0 °F 21.0 °F 59% 29.93 in 10.0 mi NW 3.5 mph - 0.00 in   Partly Cloudy
7:53 PM 33.1 °F 27.7 °F 19.9 °F 59% 29.95 in 10.0 mi Variable 5.8 mph - N/A   Clear
8:53 PM 32.0 °F 26.4 °F 19.9 °F 61% 29.96 in 10.0 mi North 5.8 mph - N/A   Clear
9:53 PM 32.0 °F 24.2 °F 19.9 °F 61% 29.97 in 10.0 mi NNW 9.2 mph - N/A   Clear
10:53 PM 32.0 °F - 19.0 °F 59% 29.97 in 10.0 mi Calm Calm - N/A   Clear
11:53 PM 30.9 °F 26.2 °F 19.0 °F 61% 29.99 in 10.0 mi North 4.6 mph - N/A   Clear